This demonstration page uses our WeatherBlox Daily Observations layout. Learn more.

Left ArrowRight Arrow

38.80484, -77.04692

Hourly Observations for October 4, 2022

Temp ( °F °C ) Dew Point ( °F °C ) Humidity (%) Winds ( mph kmh ) Pressure ( in mb ) Visibility ( mi km ) Precip ( " mm )
12:52 am 00:52 Cloudy with Light Rain 49 9.4 45 7.2 86 86 N 15 24 30.15 1021 10 16 0.04 1.02
1:52 am 01:52 Cloudy with Light Rain 49 9.4 46 7.8 90 90 N 14 22 30.13 1020 9 14 0.05 1.27
2:52 am 02:52 Cloudy with Light Rain 49 9.4 45 7.2 86 86 N 14 22 30.11 1020 10 16 0.05 1.27
3:52 am 03:52 Cloudy 49 9.4 45 7.2 86 86 N 14 22 30.10 1019 10 16 0.01 0.13
4:52 am 04:52 Cloudy with Light Rain 50 10 45 7.2 83 83 N 16 26 30.08 1019 10 16 0.01 0.13
5:52 am 05:52 Cloudy with Light Rain 49 9.4 44 6.7 83 83 NNW 16 26 30.07 1018 10 16 0.01 0.13
6:52 am 06:52 Cloudy 50 10 44 6.7 80 80 NNW 13 20 30.06 1018 10 16 0.01 0.25
7:52 am 07:52 Cloudy 50 10 45 7.2 83 83 NNW 13 20 30.06 1018 10 16 0.00 0.00
8:52 am 08:52 Cloudy 51 10.6 44 6.7 77 77 N 16 26 30.05 1018 9 14 0.00 0.00
9:52 am 09:52 Cloudy 52 11.1 45 7.2 77 77 N 15 24 30.04 1017 10 16 0.01 0.13
10:52 am 10:52 Cloudy with Drizzle 52 11.1 46 7.8 80 80 N 16 26 30.04 1017 4 6 0.01 0.13
11:06 am 11:06 Cloudy with Drizzle 51 10.6 46 7.8 83 83 N 15 24 30.04 1017 3 4 0.01 0.13
11:12 am 11:12 Cloudy with Drizzle 51 10.6 47 8.3 86 86 N 14 22 30.04 1017 4 6 0.01 0.13
11:52 am 11:52 Cloudy 52 11.1 47 8.3 83 83 N 14 22 30.02 1017 10 16 0.01 0.13
12:52 pm 12:52 Cloudy 53 11.7 47 8.3 80 80 N 18 30 30.01 1016 10 16 0.00 0.00
1:52 pm 13:52 Cloudy 53 11.7 47 8.3 80 80 N 16 26 29.99 1016 10 16 0.00 0.00
2:52 pm 14:52 Cloudy 54 12.2 47 8.3 77 77 NNW 16 26 29.98 1015 10 16 0.00 0.00
3:52 pm 15:52 Cloudy 54 12.2 48 8.9 80 80 NNW 16 26 29.97 1015 10 16 0.00 0.00
4:52 pm 16:52 Cloudy 54 12.2 47 8.3 77 77 NNW 15 24 29.97 1015 10 16 0.00 0.00
5:52 pm 17:52 Cloudy 53 11.7 47 8.3 80 80 NNW 18 30 29.97 1015 10 16 0.00 0.00
6:52 pm 18:52 Cloudy with Light Rain 51 10.6 47 8.3 86 86 NNW 14 22 29.97 1015 10 16 0.01 0.25
7:52 pm 19:52 Cloudy with Light Rain 50 10 46 7.8 86 86 NNW 15 24 29.98 1015 10 16 0.01 0.25
8:55 pm 20:55 Cloudy with Light Rain 50 10 46 7.8 86 86 NNW 14 22 29.98 1015 10 16 0.01 0.13
9:52 pm 21:52 Cloudy with Light Rain 50 10 46 7.8 86 86 NNW 13 20 29.98 1015 10 16 0.01 0.25
10:52 pm 22:52 Cloudy with Light Rain 51 10.6 47 8.3 86 86 NNW 15 24 29.96 1015 10 16 0.01 0.13
11:52 pm 23:52 Cloudy with Light Rain 51 10.6 47 8.3 86 86 NNW 13 20 29.96 1014 4 6 0.02 0.51

Powered by AerisWeather